Flag for Ukraine Weather past 2 weeks in Kyiv, Ukraine

Now
45 °F

Light rain. Low clouds.


Feels Like: 39 °F
Forecast: 34 / 38 °F
Wind: 10 mph from West

Location: Kyiv

Current Time: Dec 20, 2014 at 6:52:32 AM

Latest Report: Dec 20, 2014 at 6:30 AM


Visibility: 6 mi

Pressure: 29.71 "Hg

Humidity: 93%

Dew point: 43 °F

Location of KyivLocation

Historic Weather in Kyiv — Graph

°F

Kyiv temperature yesterday

Maximum temperature yesterday: 41 °F (at 11:00 AM)
Minimum temperature yesterday: 34 °F (at 12:00 AM)
Average temperature yesterday: 38 °F

Past Weeks' High & Low Weather Summary

 TemperatureHumidityPressure
High45 °F (Dec 20, 3:00 AM)100% (Dec 6, 9:30 AM)30.45 "Hg (Dec 6, 9:30 AM)
Low16 °F (Dec 5, 5:30 PM)61% (Dec 14, 1:30 PM)29.71 "Hg (Dec 20, 3:30 AM)
Average30 °F93%30.09 "Hg
* Reported Dec 5 6:00 AM — Dec 20 6:00 AM, Kyiv, Weather by CustomWeather, © 2014

Note: Actual official high and low records may vary slightly from our data, if they occured in-between our weather recording intervals... More about our weather records

Advertising

Kyiv weather history for previous 24 hours

 ConditionsComfort  
Time TempWeatherWind HumidityBarometerVisibility
6:00 AM
Dec 20
45 °FLight rain. Low clouds.13 mph93%29.71 "HgN/A
5:30 AM45 °FLight rain. Low clouds.13 mph93%29.71 "Hg5 mi
5:00 AM45 °FLight rain. Low clouds.13 mph93%29.71 "HgN/A
4:30 AM45 °FLight rain. Low clouds.13 mph93%29.71 "HgN/A
4:00 AM45 °FLight rain. Low clouds.13 mph93%29.71 "HgN/A
3:30 AM45 °FLight rain. Low clouds.13 mph93%29.71 "HgN/A
3:00 AM45 °FLight rain. Low clouds.13 mph93%29.74 "HgN/A
2:30 AM43 °FLow clouds.10 mph100%29.74 "Hg4 mi
2:00 AM43 °FDrizzle. Fog.8 mph93%29.74 "Hg3 mi
1:30 AM43 °FDrizzle. Fog.10 mph93%29.74 "Hg3 mi
1:00 AM43 °FDrizzle. Low clouds.10 mph93%29.77 "Hg4 mi
12:30 AM41 °FDrizzle. Low clouds.8 mph100%29.77 "Hg4 mi
12:00 AM41 °FLight rain. Fog.8 mph100%29.77 "Hg2 mi
11:30 PM
Dec 19
41 °FLight rain. Fog.8 mph100%29.77 "Hg2 mi
11:00 PM41 °FLight rain. Fog.8 mph100%29.80 "Hg3 mi
10:30 PM41 °FLight rain. Fog.8 mph100%29.80 "Hg2 mi
10:00 PM41 °FLight rain. Fog.8 mph100%29.80 "Hg2 mi
9:30 PM41 °FLight rain. Fog.8 mph93%29.80 "Hg2 mi
9:00 PM39 °FFog.8 mph100%29.80 "Hg2 mi
8:30 PM39 °FLow clouds.10 mph100%29.80 "Hg4 mi
8:00 PM39 °FLow clouds.8 mph100%29.80 "Hg4 mi
7:30 PM39 °FLow clouds.8 mph100%29.80 "Hg5 mi
7:00 PM39 °FLow clouds.8 mph100%29.80 "Hg5 mi
6:30 PM39 °FDrizzle. Low clouds.10 mph100%29.80 "Hg4 mi
6:00 PM39 °FLow clouds.10 mph93%29.80 "HgN/A
5:30 PM39 °FDrizzle. Low clouds.10 mph93%29.80 "Hg4 mi
5:00 PM39 °FLight rain. Low clouds.10 mph93%29.80 "Hg4 mi
4:30 PM39 °FLight rain. Fog.13 mph93%29.80 "Hg3 mi
4:00 PM39 °FLow clouds.13 mph93%29.80 "HgN/A
3:30 PM39 °FLow clouds.10 mph93%29.80 "HgN/A
3:00 PM39 °FLight rain. Overcast.13 mph93%29.80 "HgN/A
2:30 PM39 °FLight rain. Overcast.13 mph93%29.80 "HgN/A
2:00 PM39 °FLight rain. Overcast.13 mph87%29.80 "HgN/A
1:30 PM39 °FLight rain. Overcast.13 mph87%29.83 "HgN/A
1:00 PM39 °FLight rain. Overcast.13 mph87%29.83 "HgN/A
12:30 PM39 °FLight rain. Overcast.13 mph87%29.83 "HgN/A
12:00 PM39 °FLight rain. Overcast.10 mph87%29.83 "HgN/A
11:30 AM41 °FPartly sunny.10 mph76%29.86 "HgN/A
11:00 AM41 °FBroken clouds.10 mph76%29.86 "HgN/A
10:30 AM39 °FSunny.10 mph81%29.86 "Hg10 mi
10:00 AM39 °FSunny.10 mph81%29.89 "Hg10 mi
9:30 AM37 °FSunny.10 mph87%29.89 "Hg10 mi
9:00 AM37 °FBroken clouds.8 mph87%29.89 "HgN/A
8:30 AM37 °FPartly sunny.8 mph87%29.89 "HgN/A
8:00 AM36 °FPartly sunny.8 mph93%29.89 "HgN/A
7:30 AM36 °FPassing clouds.8 mph93%29.89 "HgN/A
7:00 AM36 °FPassing clouds.6 mph93%29.89 "Hg6 mi
6:30 AM36 °FPassing clouds.6 mph93%29.89 "Hg6 mi
6:00 AM36 °FPassing clouds.6 mph93%29.89 "Hg6 mi
Weather by CustomWeather, © 2014

See weather overviewHow to use our weather pages